Starlink 31419

operational
NORAD ID: 59368 Int'l Des: 2024-060 Owner: SPXS Country: US Constellation: starlink
LEOCIRCULAR

About Starlink 31419

Description loading...

Live Position

Loading 3D Globe...

Upcoming Passes

Altitude History

Altitude vs Time

uPlot chart will show altitude changes over time

Two-Line Element Set

1 59368U 24060W 25353.06597867 .00000896 00000-0 42084-4 0 9994
2 59368 43.0050 355.0769 0000983 271.7561 88.3178 15.27574272 97732
Epoch: Dec 19, 2025 • Age: 23 hours

Current Status

Altitude 484.5 km
Velocity 7.62 km/s
Sub-Earth Point -9.78°S, 85.45°E
Launch Date Mar 31, 2024
Age 1.7 years
Type internet

Technical Details

Classification Payload
Mass 730.00 kg
Dry Mass 700.00 kg
Total Mass 730.00 kg
Length 0.30 m
Diameter 4.10 m
Span 29.00 m
Shape Box + pan
Manufacturer SPXS
Bus Type Starlink V2M
Phase Status In Orbit
Owner/State SPXS/US

Large Constellations

Loading constellations...